EHI
0 0 0 0 0 0 0 0 0 0 0 0 0 0 0 0 0 0 0 1 2 1 0 0 0 0 0 0 1 3 3 3 3 3 3 3 3 3 3 3 3 3 2 1
0 0 0 0 0 0 0 0 0 0 0 0 0 0 0 0 0 0 0 0 1 0 0 0 0 0 0 0 1 2 2 3 3 3 3 4 3 3 3 3 3 3 3 2
0 0 0 0 0 0 0 0 0 0 0 0 0 0 0 0 0 0 0 0 0 0 0 0 0 0 1 1 1 1 1 3 3 3 4 4 4 4 4 3 3 3 3 3
0 0 0 0 0 0 0 0 0 0 0 0 0 0 0 0 0 0 0 0 0 0 0 0 0 0 1 2 2 1 0 2 3 3 4 5 5 5 5 4 3 3 3 3
0 0 0 0 0 0 0 0 0 0 0 0 0 0 0 0 0 0 0 0 0 0 0 0 0 0 1 3 2 1 0 1 2 4 5 6 6 6 6 4 3 3 3 3
0 0 0 0 0 0 0 0 0 0 0 0 0 0 0 0 0 0 0 0 0 0 0 0 0 1 2 3 2 1 0 1 2 4 6 6 6 6 6 4 3 3 3 3
0 0 0 0 0 0 0 0 0 0 0 0 0 0 0 0 0 0 0 0 0 0 0 1 1 1 2 3 2 1 1 1 2 5 6 6 6 6 6 4 3 3 2 1
0 0 0 0 0 0 0 0 0 0 0 0 0 0 0 0 0 0 0 0 0 1 1 2 2 1 1 2 2 2 3 4 4 5 6 6 6 6 5 3 2 2 1 0
0 0 0 0 0 0 0 0 0 0 0 0 0 0 0 0 0 0 0 0 0 1 2 2 2 1 1 2 2 3 4 6 6 5 4 4 5 6 4 2 1 1 0 0
0 0 0 0 0 0 0 0 0 0 0 0 0 0 0 0 0 0 0 0 0 1 2 1 1 1 1 2 3 4 4 6 6 5 3 3 4 4 2 1 0 0 0 0
0 0 0 0 0 0 0 0 0 0 0 0 0 0 0 0 0 0 0 0 0 0 0 0 0 0 0 1 3 4 4 4 4 4 3 3 2 1 1 0 0 0 0 0
0 0 0 0 0 0 0 0 0 0 0 0 0 0 0 0 0 0 0 0 0 0 0 0 0 0 0 0 1 2 2 2 3 3 3 3 2 0 0 0 0 0 0 0
0 0 0 0 0 0 0 0 0 0 0 0 0 0 0 0 0 0 0 0 0 0 0 0 0 0 0 0 0 1 1 1 2 3 3 3 2 1 0 0 0 0 0 0
0 0 0 0 0 0 0 0 0 0 0 0 0 0 0 0 0 0 0 0 0 0 0 0 0 0 0 0 0 0 0 0 1 2 3 3 2 1 0 0 0 0 0 0
0 0 0 0 0 0 0 0 0 0 0 0 0 0 0 0 0 0 0 0 0 0 0 0 0 0 0 0 0 0 0 0 0 1 2 2 2 1 0 0 0 0 0 0
0 0 0 0 0 0 0 0 0 0 0 0 0 0 0 0 0 0 0 0 0 0 0 0 0 0 0 0 0 0 0 0 0 0 1 1 1 0 0 0 0 0 0 0
0 0 0 0 0 0 0 0 0 0 0 0 0 0 0 0 0 0 0 0 0 0 0 0 0 0 0 0 0 0 0 0 0 0 0 0 0 0 0 0 0 0 0 0
0 0 0 0 0 0 0 0 0 0 0 0 0 0 0 0 0 0 0 0 0 0 0 0 0 0 0 0 0 0 0 0 0 0 0 0 0 0 0 0 0 0 0 0
0 0 0 0 0 0 0 0 0 0 0 0 0 0 0 0 0 0 0 0 0 0 0 0 0 0 0 0 0 0 0 0 0 0 0 0 0 0 0 0 0 0 0 0
0 0 0 0 0 0 0 0 0 0 0 0 0 0 0 0 0 0 0 0 0 0 0 0 0 0 0 0 0 0 0 0 0 0 0 0 0 0 0 0 0 0 0 0
0 0 0 0 0 0 0 0 0 0 0 0 0 0 0 0 0 0 0 0 0 0 0 0 0 0 0 0 0 0 0 0 0 0 0 0 0 0 0 0 0 0 0 0
0 0 0 0 0 0 0 0 0 0 0 0 0 0 0 0 0 0 0 0 0 0 0 0 0 0 0 0 0 0 0 0 0 0 0 0 0 0 0 0 0 0 0 0
0 0 0 0 0 0 0 0 0 0 0 0 0 0 0 0 0 0 0 0 0 0 0 0 0 0 0 0 0 0 0 0 0 0 0 0 0 0 0 0 0 0 0 0
0 0 0 0 0 0 0 0 0 0 0 0 0 0 0 0 0 0 0 0 0 0 0 0 0 0 0 0 0 0 0 0 0 0 0 0 0 0 0 0 0 0 0 0
0 0 0 0 0 0 0 0 0 0 0 0 0 0 0 0 0 0 0 0 0 0 0 0 0 0 0 0 0 0 0 0 0 0 0 0 0 0 0 0 0 0 0 0
0 0 0 0 0 0 0 0 0 0 0 0 0 0 0 0 0 0 0 0 0 0 0 0 0 0 0 0 0 0 0 0 0 0 0 0 0 0 0 0 0 0 0 0
0 0 0 0 0 0 0 0 0 0 0 0 0 0 0 0 0 0 0 0 0 0 0 0 0 0 0 0 0 0 0 0 0 0 0 0 0 0 0 0 0 0 0 0
Wind_Speed
9 8 8 8 8 8 9 8 9 8 6 3 1 2 2 1 2 2 1 1 1 0 0 1 1 1 1 2 3 3 3 3 3 2 2 2 1 1 1 1 1 2 2 1
11 9 9 11 11 10 10 9 9 8 7 3 3 3 2 2 2 1 1 2 1 1 1 1 1 2 1 1 2 2 3 3 3 2 2 2 1 1 1 1 1 2 1 1
9 9 9 10 8 8 8 6 6 6 3 3 3 2 2 2 1 1 1 1 2 1 2 2 2 1 2 2 2 2 2 2 3 3 2 2 2 2 2 1 1 1 1 2
7 9 10 2 1 2 4 4 3 2 2 3 3 2 2 2 2 2 2 1 1 2 2 3 2 1 1 2 2 2 2 2 2 3 3 2 2 2 2 2 2 1 1 2
5 8 7 4 2 1 3 4 2 2 2 3 2 1 1 3 3 3 3 2 2 2 2 3 2 1 2 2 2 2 2 2 2 2 2 3 3 3 2 2 2 2 2 2
6 7 6 1 2 3 3 3 2 2 3 3 3 2 1 2 3 3 3 3 2 2 2 3 2 2 2 2 2 2 2 2 2 3 3 3 3 3 2 2 2 2 2 2
8 8 4 2 2 1 2 2 3 3 3 2 3 3 2 3 3 2 2 3 2 2 3 3 2 2 2 2 2 2 2 2 3 3 3 3 3 3 2 2 3 2 2 2
6 7 4 3 2 2 4 4 4 4 4 4 4 4 3 3 3 3 2 3 2 2 3 3 2 2 2 2 1 1 2 2 2 3 3 3 3 3 3 3 3 3 2 1
2 1 2 2 3 4 4 4 5 4 5 5 4 3 3 4 3 3 3 2 2 2 2 2 2 2 2 1 1 1 2 2 2 2 2 3 4 3 3 3 2 2 2 2
5 3 1 2 3 3 4 4 5 5 4 5 5 4 3 3 3 3 3 2 2 2 2 2 3 2 2 1 1 1 2 2 2 2 2 2 2 3 3 3 3 3 3 3
7 5 4 2 2 3 3 4 5 5 5 5 5 5 4 3 3 3 3 2 2 2 2 3 3 2 1 0 0 1 2 2 2 2 2 2 2 2 3 3 4 4 3 3
6 4 4 3 2 3 4 4 4 5 5 5 5 5 4 3 3 3 3 3 2 3 2 3 2 2 2 1 1 2 2 2 1 1 2 2 2 1 0 1 4 5 5 4
6 4 3 3 3 3 4 4 4 4 4 4 4 4 4 3 3 3 3 3 2 2 3 3 3 2 2 2 2 2 2 1 1 1 1 2 2 2 1 1 1 2 4 5
5 4 4 4 3 3 4 4 4 4 4 3 3 3 3 3 3 3 3 3 3 3 3 3 3 2 1 1 2 2 2 1 1 2 2 2 2 2 2 2 1 1 2 4
5 5 4 3 3 3 3 4 4 4 3 3 3 3 3 3 4 4 4 4 3 3 3 3 2 1 1 1 1 1 1 1 1 1 1 2 2 2 2 3 2 2 1 2
5 5 4 4 4 3 3 4 4 4 4 3 3 3 3 3 3 4 4 3 4 4 3 3 2 2 1 1 1 1 1 2 2 1 1 1 2 2 2 2 3 3 3 2
5 5 5 4 4 4 4 4 4 4 4 4 4 3 3 3 3 3 4 3 4 4 3 3 3 2 2 2 2 1 1 1 2 1 2 2 2 2 2 3 3 3 3 3
5 4 4 4 3 3 4 4 4 4 4 4 4 4 3 3 3 3 3 3 4 4 3 3 3 3 2 1 1 1 1 1 1 2 2 2 2 2 2 3 3 3 2 3
3 3 3 3 3 3 3 4 4 4 4 4 4 4 3 3 3 3 4 3 3 4 3 3 4 3 2 2 2 1 1 1 1 2 2 3 3 2 2 2 2 2 2 2
3 2 2 2 3 3 4 3 3 3 3 4 4 4 3 3 2 3 3 3 2 2 2 3 3 3 2 2 3 2 2 2 2 2 2 2 2 2 2 2 2 2 2 2
2 2 2 3 3 3 3 4 3 3 3 3 4 4 4 3 3 3 3 3 2 2 2 3 2 2 2 3 3 2 2 2 2 2 2 2 2 2 2 2 2 2 2 2
1 1 2 3 3 3 3 3 3 3 3 3 3 4 4 3 3 2 2 2 2 2 1 1 1 3 4 4 2 2 1 2 2 1 1 1 2 2 2 2 2 2 2 1
1 1 2 3 3 3 3 3 3 3 3 3 3 3 3 3 2 2 2 1 1 1 1 1 2 4 5 3 2 1 1 2 2 2 1 1 1 2 2 2 2 1 1 1
2 2 2 3 3 3 3 3 3 2 2 3 2 2 2 2 2 1 1 1 2 2 1 1 3 4 4 2 2 1 1 2 2 2 1 1 1 2 2 2 1 1 1 2
2 2 3 3 3 2 2 2 3 3 2 2 2 2 2 1 1 2 2 1 2 2 1 2 3 4 3 2 1 1 1 1 2 2 1 1 1 1 1 1 1 1 2 2
3 3 2 3 3 2 2 1 2 2 2 2 2 2 2 1 2 2 2 2 2 2 2 1 1 2 2 2 2 2 2 2 2 1 1 1 1 1 1 1 2 1 2 2
3 3 2 2 2 2 2 1 2 2 2 2 2 2 2 2 2 2 2 2 2 2 1 1 1 1 1 1 2 2 2 2 1 1 1 1 1 1 1 2 2 1 1 1
Wind_Direction
280 284 285 280 273 263 260 267 276 286 293 311 16 68 59 59 70 57 33 46 67 275 207 188 222 225 211 212 195 190 178 185 195 173 135 132 143 155 142 174 198 166 154 169
276 270 269 267 264 261 260 267 273 285 299 347 26 52 33 35 48 32 19 2 2 327 289 246 236 221 202 223 213 194 181 181 168 155 141 141 155 148 141 196 168 140 152 154
277 277 271 259 259 258 260 267 272 281 314 3 17 19 17 27 27 12 17 355 331 335 311 274 253 233 200 208 213 210 189 165 157 157 149 155 166 152 157 181 157 125 140 138
275 272 255 259 13 308 285 286 287 315 19 13 4 5 33 40 35 9 356 340 328 312 301 295 284 267 232 214 207 202 189 175 163 161 159 165 172 169 168 168 153 168 171 143
264 267 268 261 277 284 291 293 327 329 3 21 355 331 64 42 24 356 341 342 330 315 315 304 284 266 242 225 204 199 198 189 176 163 172 182 182 183 177 167 177 194 179 163
259 263 266 352 30 14 308 261 42 20 12 3 334 308 335 15 8 352 344 341 341 330 315 306 295 280 267 239 203 200 207 199 192 182 180 191 189 187 177 170 193 193 177 176
252 259 265 21 2 336 259 3 33 22 8 346 327 348 3 352 350 343 341 338 341 329 317 307 291 276 269 254 215 198 201 215 202 187 185 187 181 179 172 177 181 183 182 186
242 247 253 55 3 342 8 20 11 10 5 356 357 9 0 343 338 340 343 334 340 346 333 321 290 264 267 265 232 179 181 208 210 193 193 181 168 178 182 184 178 180 180 188
269 270 32 25 11 10 6 351 355 0 3 352 341 341 339 334 333 337 332 330 337 337 318 314 308 284 265 254 210 193 192 201 206 199 192 177 171 174 182 183 180 184 179 186
273 259 251 313 329 344 344 336 345 351 345 332 323 324 327 326 330 335 332 329 325 321 322 324 323 306 280 237 187 215 202 204 199 196 192 182 174 178 183 185 186 192 191 192
267 274 274 261 290 315 322 324 329 333 330 326 321 319 320 319 327 332 328 320 311 304 307 316 315 310 299 273 222 241 219 211 198 197 192 189 185 193 194 194 192 192 194 190
260 271 275 286 320 310 298 301 310 317 324 325 320 316 318 319 325 319 314 310 311 315 318 310 308 311 313 304 258 247 228 207 195 198 190 185 175 178 215 204 203 202 197 196
280 290 287 289 298 304 298 300 302 304 301 304 306 305 308 312 316 313 306 304 306 306 307 310 314 311 318 314 301 283 266 229 176 189 190 190 185 179 191 327 319 232 207 207
295 288 272 272 274 286 293 297 296 293 292 294 302 305 306 309 313 315 318 312 300 286 277 284 293 297 315 317 313 293 284 272 228 196 196 202 203 198 191 193 214 272 245 221
273 273 273 285 284 278 281 291 293 294 306 311 314 314 318 318 316 317 319 320 313 304 298 299 303 313 326 320 306 292 276 273 261 215 198 207 209 212 213 208 205 211 216 219
269 264 258 260 268 274 275 280 286 294 301 303 305 305 306 306 307 310 314 323 314 308 310 312 313 323 314 278 273 272 236 248 261 247 229 222 216 219 230 224 215 211 211 213
255 254 249 250 260 271 277 279 283 290 297 299 300 301 300 302 303 307 310 311 314 312 313 313 313 315 299 277 271 270 258 251 261 271 252 238 225 222 231 233 233 227 223 218
246 252 257 263 271 279 282 289 294 295 295 298 302 295 285 284 289 295 299 300 308 311 320 324 335 324 309 306 305 291 266 255 256 262 268 263 257 237 231 233 235 236 230 215
244 251 267 279 287 288 289 290 292 295 297 296 290 286 283 285 292 301 304 303 303 304 316 337 336 321 317 334 333 293 262 255 266 266 263 264 271 268 258 254 250 239 228 215
242 244 249 271 281 283 286 289 291 291 294 295 291 288 285 286 292 298 299 292 286 298 321 343 331 320 324 330 319 289 268 254 251 255 253 253 252 258 262 269 268 260 243 229
234 241 245 255 261 267 276 280 279 278 280 280 283 287 289 285 283 284 288 295 306 338 340 336 337 341 335 330 307 282 269 269 264 259 255 265 270 269 267 267 264 258 253 244
250 258 266 271 268 267 272 276 276 276 278 278 283 284 283 279 276 273 269 274 296 332 332 325 337 344 341 336 312 297 298 293 286 276 265 263 268 267 263 271 278 276 269 262
253 262 283 287 282 281 279 278 277 274 273 276 279 277 274 275 269 267 276 291 316 331 321 320 330 333 332 328 311 311 315 309 305 302 299 294 292 286 278 272 276 283 276 267
264 267 277 282 280 277 280 290 294 290 285 277 279 285 286 287 288 289 285 288 302 296 289 302 310 315 313 300 297 303 305 306 306 308 310 309 306 298 293 286 278 278 278 270
256 257 261 269 273 274 283 294 295 296 294 296 306 311 304 296 295 303 308 297 277 274 286 304 305 304 296 287 291 293 291 289 299 303 301 299 298 300 307 313 313 306 298 289
264 262 259 266 279 283 274 272 282 294 301 310 319 322 326 331 325 321 321 321 315 293 289 289 281 285 291 302 304 298 295 296 294 295 302 298 292 293 303 307 306 302 303 304
261 261 264 264 267 274 277 270 272 279 289 298 302 308 312 313 313 319 319 319 319 302 291 284 277 271 281 295 296 296 301 307 313 318 315 312 311 308 303 303 305 306 302 299